Miscellaneous Local Product
Issued by NWS Hastings, NE

Home | Current Version | Previous Version | Text Only | Print | Product List | Glossary Off
Versions: 1 2 3 4 5 6 7 8 9 10 11 12 13 14 15 16 17 18 19 20 21 22 23 24 25 26 27 28 29 30 31 32 33 34 35 36 37 38 39 40 41 42 43 44 45 46 47 48 49 50

000
AXUS43 KGID 262102
MISGRI

GID CWA HOURLY WEATHER ROUNDUP
NATIONAL WEATHER SERVICE HASTINGS NE
400 PM CDT SUN APR 26 2015

NOTE: "FAIR" INDICATES FEW OR NO CLOUDS BELOW 12,000 FEET WITH NO
SIGNIFICANT WEATHER AND/OR OBSTRUCTIONS TO VISIBILITY.

...SOUTH CENTRAL NEBRASKA...

CITY           SKY/WX    TMP DP  RH WIND       PRES   REMARKS
GRAND ISLAND   CLOUDY    57  42  57 E15       29.99F
HASTINGS       CLOUDY    56  43  61 E10       29.97F
KEARNEY        CLOUDY    55  43  62 E15       29.98F
ORD            MOSUNNY   60  39  45 SE16G23   29.98F
YORK           PTSUNNY   57  43  58 E16       29.99F
AURORA         PTSUNNY   58  43  57 E16       29.99F
LEXINGTON      CLOUDY    52  43  71 E14       29.99R
HOLDREGE       CLOUDY    53  42  65 E20       29.97S
HEBRON         PTSUNNY   58  42  56 E15G22    29.97S

...NEBRASKA PANHANDLE...

CITY           SKY/WX    TMP DP  RH WIND       PRES   REMARKS
CHADRON        CLOUDY    51  42  71 CALM      29.99S
ALLIANCE       CLOUDY    48  41  76 SE15      29.97S
SCOTTSBLUFF    CLOUDY    46 N/A N/A E13       29.97S
SIDNEY         CLOUDY    43  41  93 SE12      29.97R

...WESTERN AND NORTH CENTRAL NEBRASKA...

CITY           SKY/WX    TMP DP  RH WIND       PRES   REMARKS
VALENTINE      CLOUDY    58  37  45 E13       30.02S
AINSWORTH      PTSUNNY   60  39  46 E12G17    30.02S
ONEILL         SUNNY     63  29  28 E16G22    30.02F
BROKEN BOW     CLOUDY    57  40  52 E15G23    29.99S
IMPERIAL       CLOUDY    43  41  93 E12       29.98S FOG
NORTH PLATTE   NOT AVBL
MCCOOK         CLOUDY    50  44  80 E8        29.97S

...EASTERN NEBRASKA...

CITY           SKY/WX    TMP DP  RH WIND       PRES   REMARKS
NORFOLK        SUNNY     63  30  28 E16G23    30.01F
SO SIOUX CITY  SUNNY     66  31  27 E14G20    30.02F
TEKAMAH        SUNNY     65  34  31 E13G18    30.01F
COLUMBUS       SUNNY     61  39  44 E15       30.02F
ALBION         SUNNY     61  36  39 SE15G21   30.01S
OMAHA EPPLEY   MOSUNNY   64  36  35 E16G24    30.01F
OFFUTT AFB     SUNNY     63  37  38 E15G22    29.99F
MILLARD        SUNNY     62  36  37 E6G18     30.01S
LINCOLN        MOSUNNY   62  41  46 E13G23    30.00F
NEBRASKA CITY  SUNNY     62  32  31 NE17G23   29.98F
BEATRICE       MOSUNNY   59  43  55 E10       29.97F
FALLS CITY     SUNNY     62  40  44 E18       29.95F

...NORTHERN KANSAS...

CITY           SKY/WX    TMP DP  RH WIND       PRES   REMARKS
GOODLAND       CLOUDY    44  44 100 E14       29.93S FOG
HILL CITY      CLOUDY    50  45  83 E14       29.95R
NORTON         CLOUDY    48  41  76 E9        29.95S
PHILLIPSBURG   CLOUDY    54  46  76 NE13      29.96S
SMITH CENTER   CLOUDY    52  43  71 E16       29.97S
HAYS           CLOUDY    48  41  76 E16       29.92S
RUSSELL        CLOUDY    50  48  93 E17       29.90F FOG
CONCORDIA      CLOUDY    51  43  74 E12       29.97S
SALINA         CLOUDY    53  43  68 E9        29.94S
TOPEKA         PTSUNNY   59  44  57 E16       29.94F



USA.gov is the U.S. government's official web portal to all federal, state and local government web resources and services.